• In Uzbekistan
  • List of Countries
  • For 7 days
  • Water Temperature
  • Satellite Maps
  • Weather Map
  • Weather Widgets
  • user-avatar
    Login

    Hourly Weather Caconde

    Today, 23 October, Monday

    Time Temperature Precipitation Wind Pressure Humidity
    00:00 +21°C° 0 mm 1 mps 692 mmHg 90%
    01:00 +20°C° 0.1 mm 1 mps 692 mmHg 91%
    02:00 +20°C° 0.1 mm 1 mps 692 mmHg 92%
    03:00 +20°C° 0.1 mm 1 mps 692 mmHg 92%
    04:00 +20°C° 0.6 mm 1 mps 692 mmHg 93%
    05:00 +20°C° 0.6 mm 1 mps 693 mmHg 93%
    06:00 +20°C° 0.6 mm 1 mps 693 mmHg 93%
    07:00 +21°C° 0.4 mm 1 mps 693 mmHg 90%
    08:00 +22°C° 0.4 mm 1 mps 694 mmHg 86%
    09:00 +23°C° 0.4 mm 2 mps 694 mmHg 82%
    10:00 +24°C° 0.3 mm 2 mps 694 mmHg 77%
    11:00 +25°C° 0.3 mm 2 mps 694 mmHg 72%
    12:00 +26°C° 0.3 mm 3 mps 694 mmHg 67%
    13:00 +26°C° 0.5 mm 3 mps 694 mmHg 67%
    14:00 +26°C° 0.5 mm 2 mps 693 mmHg 66%
    15:00 +26°C° 0.5 mm 2 mps 692 mmHg 66%
    16:00 +25°C° 1.2 mm 2 mps 692 mmHg 72%
    17:00 +24°C° 1.2 mm 1 mps 692 mmHg 78%
    18:00 +23°C° 1.2 mm 1 mps 692 mmHg 85%
    19:00 +22°C° 0.1 mm 1 mps 692 mmHg 87%
    20:00 +21°C° 0.1 mm 2 mps 693 mmHg 89%
    21:00 +20°C° 0.1 mm 2 mps 693 mmHg 91%
    22:00 +20°C° 0.1 mm 3 mps 693 mmHg 91%
    23:00 +19°C° 0.1 mm 3 mps 693 mmHg 92%

    Tomorrow, 24 October, Tuesday

    Time Temperature Precipitation Wind Pressure Humidity
    00:00 +19°C° 0.1 mm 3 mps 693 mmHg 92%
    01:00 +19°C° 0 mm 3 mps 693 mmHg 92%
    02:00 +19°C° 0 mm 3 mps 692 mmHg 91%
    03:00 +18°C° 0 mm 3 mps 692 mmHg 91%
    04:00 +18°C° 0 mm 3 mps 692 mmHg 91%
    05:00 +18°C° 0 mm 3 mps 692 mmHg 91%
    06:00 +18°C° 0 mm 3 mps 692 mmHg 91%
    07:00 +20°C° 0 mm 3 mps 693 mmHg 85%
    08:00 +21°C° 0 mm 4 mps 694 mmHg 80%
    09:00 +23°C° 0 mm 4 mps 694 mmHg 75%
    10:00 +25°C° 0.1 mm 4 mps 694 mmHg 71%
    11:00 +26°C° 0.1 mm 4 mps 694 mmHg 67%
    12:00 +28°C° 0.1 mm 3 mps 694 mmHg 63%
    13:00 +28°C° 0.2 mm 3 mps 693 mmHg 61%
    14:00 +29°C° 0.2 mm 3 mps 693 mmHg 59%
    15:00 +29°C° 0.2 mm 2 mps 692 mmHg 57%
    16:00 +28°C° 0.4 mm 2 mps 692 mmHg 63%
    17:00 +26°C° 0.4 mm 2 mps 692 mmHg 69%
    18:00 +25°C° 0.4 mm 1 mps 692 mmHg 76%
    19:00 +24°C° 0.2 mm 2 mps 692 mmHg 80%
    20:00 +23°C° 0.2 mm 2 mps 693 mmHg 83%
    21:00 +21°C° 0.2 mm 2 mps 693 mmHg 87%
    22:00 +21°C° 0 mm 3 mps 693 mmHg 88%
    23:00 +21°C° 0 mm 3 mps 693 mmHg 88%

    Day after tomorrow, 25 October, Wednesday

    Time Temperature Precipitation Wind Pressure Humidity
    00:00 +20°C° 0 mm 3 mps 693 mmHg 89%
    01:00 +20°C° 0 mm 3 mps 693 mmHg 89%
    02:00 +20°C° 0 mm 3 mps 692 mmHg 90%
    03:00 +19°C° 0 mm 3 mps 692 mmHg 91%
    04:00 +19°C° 0 mm 3 mps 692 mmHg 91%
    05:00 +19°C° 0 mm 3 mps 692 mmHg 90%
    06:00 +19°C° 0 mm 3 mps 693 mmHg 90%
    07:00 +21°C° 0 mm 3 mps 693 mmHg 82%
    08:00 +23°C° 0 mm 4 mps 694 mmHg 73%
    09:00 +26°C° 0 mm 4 mps 694 mmHg 64%
    10:00 +27°C° 0.1 mm 4 mps 694 mmHg 59%
    11:00 +29°C° 0.1 mm 4 mps 694 mmHg 55%
    12:00 +31°C° 0.1 mm 3 mps 693 mmHg 50%
    13:00 +31°C° 0.5 mm 3 mps 693 mmHg 48%
    14:00 +31°C° 0.5 mm 2 mps 692 mmHg 47%
    15:00 +32°C° 0.5 mm 2 mps 692 mmHg 45%
    16:00 +30°C° 0.4 mm 2 mps 692 mmHg 51%
    17:00 +28°C° 0.4 mm 2 mps 692 mmHg 57%
    18:00 +27°C° 0.4 mm 2 mps 691 mmHg 63%
    19:00 +25°C° 0.9 mm 2 mps 692 mmHg 69%
    20:00 +24°C° 0.9 mm 3 mps 692 mmHg 74%
    21:00 +22°C° 0.9 mm 3 mps 692 mmHg 79%
    22:00 +22°C° 0.7 mm 3 mps 692 mmHg 81%
    23:00 +21°C° 0.7 mm 3 mps 692 mmHg 84%

    26 October, Thursday

    Time Temperature Precipitation Wind Pressure Humidity
    00:00 +21°C° 0.7 mm 3 mps 692 mmHg 86%
    01:00 +20°C° 0.1 mm 3 mps 691 mmHg 86%
    02:00 +20°C° 0.1 mm 3 mps 691 mmHg 86%
    03:00 +20°C° 0.1 mm 3 mps 691 mmHg 87%
    04:00 +20°C° 0 mm 3 mps 691 mmHg 86%
    05:00 +20°C° 0 mm 3 mps 691 mmHg 86%
    06:00 +20°C° 0 mm 3 mps 691 mmHg 85%
    07:00 +21°C° 0 mm 3 mps 692 mmHg 81%
    08:00 +22°C° 0 mm 3 mps 692 mmHg 78%
    09:00 +23°C° 0 mm 4 mps 693 mmHg 74%
    10:00 +26°C° 0 mm 4 mps 693 mmHg 66%
    11:00 +28°C° 0 mm 4 mps 693 mmHg 58%
    12:00 +32°C° 0 mm 4 mps 692 mmHg 50%
    13:00 +31°C° 0.5 mm 3 mps 692 mmHg 49%
    14:00 +31°C° 0.5 mm 3 mps 692 mmHg 49%
    15:00 +31°C° 0.5 mm 3 mps 691 mmHg 49%
    16:00 +29°C° 0.6 mm 2 mps 691 mmHg 57%
    17:00 +27°C° 0.6 mm 2 mps 691 mmHg 65%
    18:00 +25°C° 0.6 mm 2 mps 690 mmHg 73%
    19:00 +25°C° 0.1 mm 2 mps 691 mmHg 74%
    20:00 +24°C° 0.1 mm 1 mps 691 mmHg 75%
    21:00 +24°C° 0.1 mm 1 mps 691 mmHg 76%
    22:00 +23°C° 1 mm 1 mps 691 mmHg 79%
    23:00 +23°C° 1 mm 1 mps 691 mmHg 82%

    27 October, Friday

    Time Temperature Precipitation Wind Pressure Humidity
    00:00 +21°C° 1 mm 2 mps 691 mmHg 85%
    01:00 +21°C° 0.9 mm 2 mps 690 mmHg 87%
    02:00 +20°C° 0.9 mm 2 mps 690 mmHg 90%
    03:00 +21°C° 0.9 mm 1 mps 690 mmHg 92%
    04:00 +20°C° 0.7 mm 2 mps 690 mmHg 91%
    05:00 +20°C° 0.7 mm 3 mps 690 mmHg 91%
    06:00 +20°C° 0.7 mm 3 mps 690 mmHg 90%
    07:00 +21°C° 0.3 mm 3 mps 690 mmHg 86%
    08:00 +22°C° 0.3 mm 3 mps 691 mmHg 82%
    09:00 +24°C° 0.3 mm 3 mps 691 mmHg 77%
    10:00 +26°C° 0.6 mm 4 mps 691 mmHg 70%
    11:00 +28°C° 0.6 mm 4 mps 690 mmHg 63%
    12:00 +30°C° 0.6 mm 4 mps 690 mmHg 55%
    13:00 +29°C° 1.2 mm 4 mps 689 mmHg 57%
    14:00 +29°C° 1.2 mm 3 mps 689 mmHg 60%
    15:00 +28°C° 1.2 mm 3 mps 688 mmHg 62%
    16:00 +27°C° 2.8 mm 2 mps 688 mmHg 68%
    17:00 +26°C° 2.8 mm 2 mps 688 mmHg 74%
    18:00 +24°C° 2.8 mm 2 mps 688 mmHg 80%
    19:00 +24°C° 2.1 mm 2 mps 688 mmHg 84%
    20:00 +23°C° 2.1 mm 2 mps 688 mmHg 88%
    21:00 +22°C° 2.1 mm 1 mps 689 mmHg 92%
    22:00 +20°C° 1.2 mm 2 mps 688 mmHg 92%
    23:00 +20°C° 1.2 mm 2 mps 688 mmHg 93%

    28 October, Saturday

    Time Temperature Precipitation Wind Pressure Humidity
    00:00 +20°C° 1.2 mm 2 mps 688 mmHg 94%
    01:00 +20°C° 1.3 mm 2 mps 688 mmHg 94%
    02:00 +20°C° 1.3 mm 2 mps 688 mmHg 94%
    03:00 +21°C° 1.3 mm 1 mps 687 mmHg 94%
    04:00 +21°C° 0.7 mm 1 mps 688 mmHg 94%
    05:00 +20°C° 0.7 mm 2 mps 688 mmHg 93%
    06:00 +20°C° 0.7 mm 2 mps 688 mmHg 92%
    07:00 +23°C° 0 mm 2 mps 688 mmHg 86%
    08:00 +24°C° 0 mm 3 mps 689 mmHg 81%
    09:00 +26°C° 0 mm 4 mps 689 mmHg 75%
    10:00 +28°C° 0.4 mm 4 mps 689 mmHg 68%
    11:00 +29°C° 0.4 mm 5 mps 689 mmHg 62%
    12:00 +32°C° 0.4 mm 5 mps 688 mmHg 55%
    13:00 +32°C° 0.4 mm 4 mps 688 mmHg 56%
    14:00 +30°C° 0.4 mm 4 mps 687 mmHg 57%
    15:00 +30°C° 0.4 mm 3 mps 687 mmHg 58%
    16:00 +29°C° 0.4 mm 2 mps 687 mmHg 62%
    17:00 +28°C° 0.4 mm 2 mps 686 mmHg 66%
    18:00 +27°C° 0.4 mm 1 mps 686 mmHg 70%
    19:00 +26°C° 0.4 mm 1 mps 687 mmHg 74%
    20:00 +25°C° 0.4 mm 1 mps 687 mmHg 78%
    21:00 +24°C° 0.4 mm 1 mps 687 mmHg 82%
    22:00 +23°C° 0.9 mm 1 mps 687 mmHg 85%
    23:00 +23°C° 0.9 mm 1 mps 687 mmHg 88%

    29 October, Sunday

    Time Temperature Precipitation Wind Pressure Humidity
    00:00 +22°C° 0.9 mm 1 mps 687 mmHg 91%
    01:00 +22°C° 0.2 mm 1 mps 687 mmHg 91%
    02:00 +22°C° 0.2 mm 1 mps 687 mmHg 90%
    03:00 +22°C° 0.2 mm 1 mps 687 mmHg 90%
    04:00 +22°C° 0.2 mm 1 mps 687 mmHg 90%
    05:00 +22°C° 0.2 mm 1 mps 687 mmHg 90%
    06:00 +22°C° 0.2 mm 1 mps 687 mmHg 90%
    07:00 +23°C° 0.3 mm 1 mps 688 mmHg 85%
    08:00 +25°C° 0.3 mm 2 mps 688 mmHg 80%
    09:00 +26°C° 0.3 mm 2 mps 689 mmHg 76%
    10:00 +26°C° 1.6 mm 2 mps 689 mmHg 75%
    11:00 +27°C° 1.6 mm 2 mps 688 mmHg 74%
    12:00 +27°C° 1.6 mm 3 mps 688 mmHg 73%
    13:00 +27°C° 1.2 mm 2 mps 688 mmHg 73%
    14:00 +27°C° 1.2 mm 2 mps 688 mmHg 74%
    15:00 +27°C° 1.2 mm 2 mps 687 mmHg 75%
    16:00 +25°C° 2 mm 2 mps 687 mmHg 80%
    17:00 +24°C° 2 mm 2 mps 687 mmHg 84%
    18:00 +23°C° 2 mm 1 mps 687 mmHg 89%
    19:00 +23°C° 2.8 mm 1 mps 687 mmHg 90%
    20:00 +22°C° 2.8 mm 1 mps 688 mmHg 92%
    21:00 +22°C° 2.8 mm 1 mps 688 mmHg 93%
    22:00 +22°C° 1.6 mm 1 mps 688 mmHg 94%
    23:00 +22°C° 1.6 mm 1 mps 688 mmHg 94%
    Show more